Vorticity
7 8 8 9 8 9 11 8 6 7 6 7 7 8 6 6 7 7 6 11 6 5 5 4 4 6 3 1 -0 0 3 8 8 6 5 8 4 6 7 8 6 4 2 4 3
10 11 8 7 8 8 11 6 7 4 4 6 8 8 7 7 7 7 7 9 9 5 -0 1 4 4 7 5 -4 7 7 10 11 7 4 7 6 6 6 6 5 5 3 6 9
12 10 10 9 9 9 11 6 6 4 5 5 7 9 9 7 8 7 7 8 9 5 3 3 4 5 7 7 -1 10 7 11 6 10 6 6 6 6 5 7 7 8 9 6 3
12 13 12 12 10 9 9 6 5 5 6 4 6 9 12 9 7 6 7 8 8 8 8 -0 2 4 1 9 6 9 8 12 9 10 7 6 5 6 6 7 4 4 3 1 6
14 13 11 12 9 8 8 7 6 5 6 5 5 9 14 14 7 7 7 8 8 7 8 4 2 2 5 3 3 2 -5 15 8 8 7 8 6 5 6 7 4 4 7 7 8
7 9 9 8 7 9 6 4 8 8 7 6 6 10 13 16 11 8 7 9 9 8 7 5 7 5 4 6 5 5 20 11 7 9 7 8 8 6 8 11 7 6 9 8 6
10 11 9 9 8 7 6 4 10 11 8 7 6 13 11 9 13 6 5 5 9 9 7 6 6 5 4 4 7 -4 14 11 7 5 6 6 9 8 9 10 7 8 8 8 9
5 9 11 11 9 7 7 11 14 8 9 9 7 14 12 7 13 5 4 4 5 10 9 7 6 5 3 6 7 6 21 2 10 5 6 -1 15 7 7 10 6 7 5 5 6
8 3 5 10 9 8 8 11 8 6 6 9 8 13 9 10 11 5 6 4 4 6 9 8 5 5 4 6 7 64 5 -6 5 7 5 -4 15 6 6 9 10 4 4 3 4
13 16 6 3 6 10 9 8 10 6 4 5 12 10 8 9 13 8 4 6 7 6 11 11 6 4 5 -1 32 40 -3 2 -1 9 6 5 7 4 6 9 7 5 3 4 6
9 11 15 14 4 3 7 12 10 9 8 6 14 8 3 3 7 9 5 4 9 8 11 14 7 4 7 6 -36 32 -6 3 3 9 6 8 4 6 8 6 4 8 10 5 2
6 7 10 12 21 5 3 5 9 15 14 12 13 7 5 4 7 10 4 5 9 13 15 19 8 4 5 -2 -2 11 6 4 4 10 3 10 6 6 6 3 3 5 1 1 6
13 9 6 11 11 21 8 4 4 7 15 13 13 7 7 4 5 8 9 5 6 11 19 20 3 6 5 11 2 9 -13 16 -4 9 1 9 5 6 3 3 3 4 1 3 7
13 12 11 6 11 11 19 10 5 4 7 14 14 10 7 5 5 12 10 9 7 7 23 14 7 6 6 -1 10 19 30 6 6 11 7 1 12 14 4 3 2 5 -3 1 13
13 14 12 10 7 12 11 19 11 5 6 9 12 15 5 3 8 9 14 3 15 8 19 15 8 4 4 3 5 22 23 7 -1 -1 -1 28 -7 7 8 3 3 4 -3 -4 10
12 14 15 11 11 12 13 13 20 9 7 8 16 16 7 3 8 3 14 6 8 9 17 11 9 4 4 4 6 -5 7 27 30 -4 9 6 -4 3 25 6 9 7 6 4 9
15 14 16 13 16 13 13 15 13 14 12 9 4 17 8 4 6 4 9 8 6 12 16 7 10 6 2 -0 4 -8 72 -20 10 -2 9 11 11 -8 15 8 6 7 5 10 6
14 15 14 18 15 16 14 13 15 11 17 9 1 14 14 8 7 5 5 7 7 4 14 14 6 8 2 1 1 -15 15 24 7 16 3 9 11 16 12 5 5 9 8 6 8
14 15 13 15 16 15 14 14 13 14 15 15 4 10 10 14 10 9 4 10 11 7 5 19 5 19 5 2 2 22 -22 15 10 -9 -11 36 2 14 8 9 5 6 7 10 9
15 10 18 13 13 14 16 19 13 17 14 17 8 3 10 9 12 10 4 10 8 9 9 13 9 11 8 5 2 2 -6 33 9 -12 19 6 16 8 10 18 3 14 8 0 -3
15 18 10 15 11 16 13 16 15 12 12 16 16 3 10 8 14 8 8 5 10 11 9 -1 13 21 7 6 4 6 2 -10 3 1 2 12 26 12 5 2 16 -2 9 -11 -4
20 12 18 16 18 16 17 16 13 15 14 15 12 10 9 8 7 9 8 4 11 10 9 9 10 7 3 3 9 5 4 7 38 11 -18 -11 14 27 14 4 0 7 10 2 7
14 16 15 12 16 15 17 17 16 13 13 15 11 8 8 7 10 9 8 8 6 5 10 7 3 12 3 20 7 6 4 1 11 4 17 1 6 4 10 18 6 7 4 2 -8
13 13 11 7 10 14 17 19 17 15 14 17 19 10 7 7 7 10 13 9 7 3 6 5 6 5 10 13 20 11 2 1 11 20 -24 9 5 6 20 2 13 6 3 8 14
12 12 8 11 9 9 15 20 17 16 14 16 20 7 12 9 3 7 10 17 7 10 6 3 3 7 15 -9 16 9 25 5 4 9 31 -3 14 21 12 15 8 6 5 4 11
18 17 10 8 10 10 12 19 17 15 16 15 15 23 -0 11 4 -2 -0 11 7 9 10 10 2 3 6 8 6 1 6 14 4 4 1 1 -6 -7 9 8 29 54 20 22 1
13 12 11 11 9 11 7 16 20 16 15 15 16 19 17 4 6 3 4 4 9 13 13 15 8 3 -0 10 10 13 19 13 10 7 11 6 8 7 9 4 7 5 13 25 32
Height
5880 5880 5880 5880 5880 5881 5881 5881 5882 5883 5884 5884 5885 5887 5888 5890 5892 5893 5894 5898 5900 5903 5904 5905 5906 5909 5911 5912 5912 5914 5916 5917 5917 5917 5918 5918 5918 5918 5919 5920 5922 5922 5922 5924 5924
5874 5874 5875 5875 5876 5876 5877 5878 5879 5880 5881 5881 5882 5884 5885 5887 5889 5890 5891 5895 5898 5900 5902 5904 5905 5907 5909 5911 5913 5913 5916 5917 5918 5918 5919 5919 5919 5920 5921 5921 5922 5924 5923 5924 5925
5869 5870 5870 5871 5871 5872 5873 5874 5875 5876 5877 5878 5879 5880 5881 5883 5886 5886 5888 5892 5895 5897 5900 5902 5904 5906 5908 5910 5912 5913 5915 5916 5917 5918 5919 5920 5919 5921 5922 5922 5922 5924 5925 5925 5925
5864 5864 5865 5866 5867 5868 5868 5870 5871 5873 5874 5874 5875 5876 5877 5879 5882 5882 5884 5887 5891 5893 5898 5900 5903 5904 5907 5909 5911 5913 5914 5915 5916 5917 5918 5919 5919 5921 5922 5923 5923 5924 5925 5926 5926
5860 5859 5860 5861 5862 5863 5864 5865 5867 5868 5869 5870 5871 5872 5872 5875 5876 5879 5881 5884 5888 5891 5894 5897 5900 5903 5906 5908 5909 5911 5912 5914 5916 5916 5916 5918 5919 5920 5921 5922 5923 5924 5925 5926 5928
5856 5856 5856 5856 5857 5858 5859 5861 5862 5863 5864 5865 5866 5867 5868 5870 5871 5875 5878 5881 5884 5888 5891 5893 5897 5900 5903 5905 5908 5909 5911 5912 5914 5916 5916 5917 5918 5919 5921 5922 5923 5924 5926 5926 5927
5851 5851 5851 5852 5852 5853 5854 5856 5857 5858 5859 5860 5861 5862 5865 5865 5868 5872 5875 5879 5881 5884 5888 5891 5894 5897 5900 5902 5904 5907 5910 5912 5913 5915 5915 5917 5918 5919 5921 5922 5923 5925 5927 5928 5928
5847 5847 5846 5846 5847 5847 5849 5850 5851 5852 5854 5855 5857 5858 5860 5861 5865 5868 5872 5876 5878 5880 5884 5887 5891 5894 5896 5898 5900 5901 5907 5911 5912 5914 5914 5918 5919 5919 5921 5923 5925 5926 5927 5929 5930
5842 5841 5841 5841 5841 5841 5842 5845 5846 5847 5849 5851 5852 5854 5854 5858 5860 5863 5868 5871 5873 5876 5879 5883 5886 5889 5892 5892 5894 5896 5906 5909 5910 5912 5914 5917 5918 5919 5921 5923 5926 5927 5928 5930 5931
5835 5834 5834 5834 5835 5835 5836 5838 5840 5842 5844 5846 5847 5850 5851 5853 5855 5859 5863 5867 5870 5873 5875 5878 5882 5885 5887 5887 5888 5897 5902 5905 5907 5911 5913 5915 5917 5919 5921 5923 5926 5928 5929 5930 5932
5829 5828 5826 5827 5828 5828 5829 5832 5835 5837 5838 5840 5842 5843 5844 5848 5851 5854 5858 5861 5864 5867 5870 5874 5878 5882 5884 5883 5879 5890 5896 5901 5905 5909 5912 5913 5915 5918 5921 5923 5925 5928 5929 5931 5933
5822 5820 5820 5819 5820 5820 5821 5824 5826 5830 5831 5832 5834 5837 5840 5842 5846 5849 5852 5855 5859 5864 5866 5869 5874 5878 5877 5881 5882 5890 5895 5900 5903 5907 5910 5913 5915 5917 5920 5922 5925 5927 5929 5931 5934
5814 5813 5811 5812 5812 5812 5814 5817 5819 5821 5824 5825 5828 5831 5834 5838 5840 5843 5846 5850 5854 5858 5860 5866 5873 5872 5876 5878 5881 5887 5890 5893 5897 5902 5907 5911 5915 5917 5919 5922 5925 5927 5929 5931 5934
5806 5804 5803 5803 5805 5805 5806 5808 5812 5815 5817 5820 5821 5825 5827 5833 5834 5838 5841 5846 5849 5854 5857 5860 5865 5869 5872 5876 5880 5879 5884 5889 5895 5902 5909 5910 5919 5917 5918 5921 5924 5927 5930 5931 5934
5798 5796 5794 5794 5795 5797 5798 5800 5804 5807 5809 5812 5814 5820 5823 5826 5833 5833 5836 5840 5844 5850 5852 5858 5861 5866 5870 5873 5874 5873 5877 5885 5890 5897 5906 5906 5915 5922 5917 5919 5923 5926 5927 5930 5932
5789 5787 5785 5785 5786 5789 5790 5792 5796 5800 5800 5805 5808 5812 5817 5820 5825 5826 5829 5834 5840 5843 5847 5852 5858 5860 5867 5867 5870 5871 5874 5878 5886 5892 5898 5907 5910 5917 5915 5919 5922 5924 5926 5928 5931
5781 5778 5776 5776 5778 5778 5781 5784 5788 5788 5795 5798 5801 5805 5810 5814 5819 5820 5823 5826 5831 5838 5840 5845 5851 5855 5860 5861 5866 5868 5867 5872 5882 5887 5898 5905 5906 5914 5915 5916 5919 5921 5923 5925 5928
5772 5770 5767 5768 5768 5770 5772 5775 5778 5783 5788 5791 5795 5799 5803 5808 5813 5816 5817 5822 5828 5834 5839 5843 5847 5849 5854 5858 5863 5863 5860 5866 5881 5891 5898 5896 5899 5907 5910 5912 5915 5918 5921 5923 5926
5764 5762 5760 5759 5760 5762 5763 5765 5771 5774 5778 5784 5788 5792 5795 5800 5806 5809 5812 5818 5824 5828 5834 5839 5845 5848 5852 5855 5857 5858 5859 5866 5874 5880 5886 5893 5898 5901 5906 5910 5913 5915 5918 5920 5923
5758 5755 5753 5752 5752 5754 5755 5759 5761 5765 5770 5775 5780 5783 5787 5792 5799 5803 5806 5813 5819 5824 5829 5837 5843 5842 5846 5851 5852 5855 5858 5862 5865 5871 5884 5890 5893 5901 5903 5906 5909 5912 5915 5918 5920
5751 5748 5746 5744 5744 5746 5747 5749 5752 5755 5760 5765 5770 5776 5779 5784 5791 5795 5802 5809 5814 5819 5823 5831 5836 5836 5842 5843 5847 5850 5853 5858 5862 5869 5877 5887 5892 5893 5897 5900 5904 5907 5910 5912 5916
5744 5742 5739 5738 5738 5737 5738 5740 5743 5747 5751 5756 5762 5767 5772 5777 5783 5790 5795 5802 5808 5814 5816 5822 5832 5833 5835 5840 5843 5848 5849 5851 5854 5859 5870 5874 5884 5884 5890 5895 5898 5901 5903 5906 5907
5737 5734 5733 5732 5731 5731 5731 5733 5736 5738 5743 5747 5752 5758 5764 5770 5776 5781 5788 5794 5798 5805 5810 5817 5822 5832 5832 5832 5837 5840 5844 5848 5851 5856 5860 5870 5876 5877 5882 5886 5891 5894 5897 5899 5902
5731 5729 5727 5726 5725 5725 5725 5726 5728 5731 5734 5739 5745 5750 5757 5763 5768 5774 5780 5786 5794 5800 5806 5810 5816 5821 5829 5832 5833 5834 5838 5841 5846 5850 5854 5860 5869 5870 5876 5879 5883 5886 5888 5892 5894
5724 5723 5721 5720 5719 5719 5719 5720 5721 5723 5726 5731 5737 5743 5748 5755 5762 5769 5775 5781 5787 5792 5799 5803 5807 5816 5823 5827 5831 5832 5833 5838 5840 5849 5849 5859 5863 5868 5869 5870 5873 5876 5879 5882 5885
5717 5715 5714 5713 5712 5712 5712 5714 5714 5716 5719 5722 5727 5732 5740 5748 5755 5757 5765 5774 5777 5784 5790 5797 5801 5807 5813 5821 5824 5828 5829 5832 5835 5841 5845 5850 5854 5861 5860 5862 5864 5864 5871 5873 5877
5710 5708 5707 5706 5704 5704 5705 5707 5708 5709 5711 5714 5718 5724 5730 5737 5744 5751 5760 5765 5772 5777 5783 5789 5795 5798 5804 5811 5816 5818 5821 5826 5831 5836 5840 5843 5849 5851 5855 5857 5858 5860 5861 5862 5866